User: anonymous   Login
Location: Unspecified
(0.0000°N, 0.0000°E)
Time: 04:41:46
(UTC+00:00)
Language:

Orbcomm-X - Orbit

View from above orbital plane
View from above orbital plane
View from above satellite
View from above satellite

Ground track
Ground track

The orbit data is extracted from the following two-line orbital elements,

1 21577U 91050D   18019.13032046 -.00000003  00000-0  13859-4 0  9999
2 21577  98.7717  43.7913 0007294  74.9957 285.2037 14.39405101391472
Epoch (UTC): 19 January 2018 03:07:39
Eccentricity: 0.0007294
inclination: 98.7717°
perigee height: 755 km
apogee height: 765 km
right ascension of ascending node: 43.7913°
argument of perigee: 74.9957°
revolutions per day: 14.39405101
mean anomaly at epoch: 285.2037°
orbit number at epoch: 39147

The dashed part of the orbit path shows where the satellite is in the earth's shadow,  

DLR